Showing default

TES, 26957

Orbit data source: Space-Track

TES, 26957 is a payload satellite owned by ISRO (IN) in SSO that was launched on Mon, 22 Oct 2001 UTC via a PSLV launch vehicle from the Sirharikota (SRI). Payload-class satellites include a variety of spacecraft equipped with specific instruments for various scientific and technological missions. These include communications satellites like Starlink; space stations such as the ISS; scientific satellites like the Hubble; Earth observation satellites from companies like Planet Labs, Umbra, and HawkEye 360; GPS; miniature CubeSats for education and research; and military/defense satellites.

Loading next visibility...
Identifier
26957, 2001-049A
Orbit
SSO
Last TLE update
10 hours ago
Origin
Manufacturer
ISAC?
Mission
Non-operational Defense Imaging
Bus & Motor
IRS, AOCS
Mass
1,108 kg wet, ~950 kg dry
Launch date (UTC)
2001-10-22 (24 years ago)
Launch vehicle
PSLV
Launch site
Sirharikota (SRI)
Object type
Payload
Rocket body
Debris
Shape & HBR
Box + 1 Pan, 11.7 m
Radar Cross Section
12.382 m², Large (>1 m²)

Expand to show TLE details & history

TLE from 10 hours ago
0 TES
1 26957U 01049A   25186.59498131  .00035195  00000-0  45799-3 0  9995
2 26957  97.8504  49.3485 0012125 314.1740  45.8517 15.58608012304360
Epoch: 2025-07-05T14:16Z
TLE epoch observation values (Epoch: 2025-07-05T14:16:46.385Z)
Latitude
-0.00003°
Longitude
-88.67554°
Altitude
389.101 km
Speed
7.68 km/s
True Right ascension
03h 17m 23s
True Declination
0° 00' 00"
Sunlit
Object was in daylight at epoch
Visualization orbit readout
Latitude
-81.57082°
Longitude
-20.49039°
Altitude
413.518 km
Speed
7.665 km/s
Apparent Right ascension
01h 24m 58s
Apparent Declination
-66° 28' 27"
Sunlit
Object is in daylight
Visualization observer readout
Local Sidereal Time
12:38:12
Azimuth
190.136° SSW
Elevation
-62.639°
Doppler factor
1
Orbital elements
Apogee altitude
396.824 km
Perigee altitude
380.415 km
Semi-major axis
6,766.756 km
Eccentricity
0.00121
Inclination
97.8504°
RAAN
49.3485°
Arg. of periapsis
314.174°
True anomaly
Unknown
Mean anomaly
45.8517°
Eccentric anomaly
Unknown
Mean motion
3.89917 °/min
Orbital period
92.33 mins
BSTAR
0.00045799
Loading maneuver chart data...
Loading SW <> Apogee altitude chart data...
Loading historical data...
Loading historical data...
Loading historical data...
Loading historical data...
Loading historical data...
Loading historical data...
Loading historical data...

TES Visibility forecast

Observer location: undefined°, undefined°

Span
Click to sort rows by Start time (UTC) header in descending order
Start Az.
Max El. time (UTC)
Max El. Az.
Max El.
End time (UTC)
End Az.
4 mins2025-07-06 03:10:38.986Z50.062° ENE2025-07-06 03:12:38.986Z100.667° ESE21.339°2025-07-06 03:14:38.986Z147.506° SSE
4 mins2025-07-06 15:04:38.986Z185.083° SSW2025-07-06 15:06:38.986Z304.619° NW37.997°2025-07-06 15:08:38.986Z338.481° N
|